TJREVERB (55128 NORAD) Tracking and Keplerian Element Data

This shows tracking and keplerian element data for the satellite.

Feedback or suggestion? Click here.




ElementValue
Catalog55128
NameTJREVERB
Epoch Orbit239
Epoch Day13.42686294
Epoch Year2023
RAAN15.0127
Inclination51.6423
Eccentricity0.0003835
Argument of Perigee289.2529
Mean Anonmoly70.8046
Mean Motion15.51756789
Decay Rate0.00064602
L11 55128U 98067UV 23013.42686294 .00064602 00000+0 10621-2 0 9990
L22 55128 51.6423 15.0127 0003835 289.2529 70.8046 15.51756789 2399



Live tracking and technical data element details for TJREVERB (NORAD 55128). TJREVERB can be tracked NOW for your location showing map with azimuth and elevation plus other details from your city location.







IsCatalogInMostPopularTable: catalog: 55128, numindb: 3
Update: records affected: 1



GetName: 55128 TJREVERB

Hit Count: updated at: Tue, 07 Feb 2023 14:43:04 GMT